Погода в Павловском

Россия / Челябинская область     52°05′14″N   60°01′34″E
темп.,
°C
ветер,
м/с
пор.,
м/с
влажн.,
%
обл.,
%
осадки,
мм/ч
давл.,
гПа
погр.,
м
14 мая, пт
пт1423:00+19зсз45301 0.0 102650
02:00+17сз33381 0.0 102635
05:00+16ссз22364 0.0 102714
08:00+21с23314 0.0 1027165
11:00+25ссз22245 0.0 1027988
14:00+27зсз21235 0.0 10262717
17:00+28зсз32225 0.0 10253016
20:00+25зсз33304 0.0 102533
15 мая, сб
сб1523:00+20сз22365 0.0 102522
02:00+19ссз33375 0.0 102518
05:00+17с224520 0.0 102616
08:00+22с22385 0.0 1026163
11:00+27зсз33250 0.0 10251462
14:00+29з44224 0.0 10242878
17:00+29з43202 0.0 10232868
20:00+25з33273 0.0 102225
16 мая, вс
вс1623:00+21з22260 0.0 102311
02:00+18зюз114114 0.0 102211
05:00+17зюз33563 0.0 102330
08:00+21зсз34470 0.0 1024195
11:00+26з22320 0.0 10231102
14:00+29юз33212 0.0 10222983
17:00+29зюз44205 0.0 10213391
20:00+26зюз12292 0.0 102012
17 мая, пн
пн1723:00+21з6124327 0.0 1021241
02:00+19сз464733 0.0 102187
05:00+17зсз335519 0.0 102135
08:00+22ссз114312 0.0 1021152
11:00+27зюз33305 0.0 10201113
14:00+30з432335 0.0 10193396
17:00+30з432212 0.0 10183183
20:00+26зсз22331 0.0 101820
18 мая, вт
вт1823:00+19ссв385520 0.2 1019152
02:00+18сз115643 0.0 101811
05:00+18ссв225774 0.0 101811
08:00+22ссв34455 0.0 1018257
11:00+27с44325 0.0 10171504
14:00+30с442572 0.0 10163615
17:00+30с552182 0.0 10153234
20:00+22с594640 0.1 1016263